Location: Newark
(31.5350°N, 35.0986°E)
Time: 03:15:59
(UTC+00:00)

Vanguard 1 - Pass Details

Date: 27 September 2019
Orbit: 653 x 3830 km, 34.2° (Epoch: 20 October)

Event Time Altitude Azimuth Distance (km) Brightness Sun altitude
Rises 02:35:12 0° 285° (WNW) 7,973 - -12.6°
Exits shadow 02:39:47 - 285° (WNW) 7,098 13.8 -11.6°
Reaches altitude 10° 02:40:47 10° 285° (WNW) 6,901 13.8 -11.4°
Maximum altitude 03:03:23 84° 201° (SSW) 2,930 12.4 -6.6°
Drops below altitude 10° 03:16:39 10° 115° (ESE) 4,381 14.6 -3.8°
Sets 03:19:20 0° 114° (ESE) 5,055 15.1 -3.2°
